Parkersburg, WV

3:03 AM EST on December 11, 2017 (GMT -0500)
Wood County Wilson

Weather History for KPKB - July, 2013

Change the Weather History Date:

Tuesday, July 16, 2013

  Actual Average Record
Temperature  
Mean Temperature 80 °F 75 °F  
Max Temperature 92 °F 85 °F 102 °F (1988)
Min Temperature 68 °F 64 °F 51 °F (1939)
Degree Days  
Heating Degree Days 0 0  
Month to date heating degree days 0 0  
Since 1 June heating degree days 6 19  
Since 1 July heating degree days 0 0  
Cooling Degree Days 15 10  
Month to date cooling degree days 174 152  
Year to date cooling degree days 486 427  
Since 1 June cooling degree days 360 343  
Growing Degree Days 30 (Base 50)    
Moisture  
Dew Point 70 °F    
Average Humidity 73    
Maximum Humidity 97    
Minimum Humidity 49    
Precipitation  
Precipitation T in 0.14 in 1.46 in (1962)
Month to date precipitation 5.44 2.13  
Year to date precipitation 24.17 23.10  
Sea Level Pressure  
Sea Level Pressure 30.32 in    
Wind  
Wind Speed 1 mph (NNW)    
Max Wind Speed 9 mph    
Max Gust Speed 20 mph    
Visibility 7 miles    
Events Fog , Thunderstorm    
T = Trace of Precipitation, MM = Missing Value Source: NWS Daily Summary

Daily Weather History Graph

Daily Weather History Graph

Search for Another Location

Airport or City:

Trip Planner

Search our weather history database for the weather conditions in past years. The results will help you decide how hot, cold, wet, or windy it might be!

Date:

Astronomy

Jul. 16, 2013 Rise Set
Actual Time 6:12 AM EDT 8:50 PM EDT
Civil Twilight 5:41 AM EDT 9:22 PM EDT
Nautical Twilight 5:01 AM EDT 10:01 PM EDT
Astronomical Twilight 4:17 AM EDT 10:44 PM EDT
Moon 2:31 PM EDT (7/16) 12:40 AM EDT (7/16)
Length of Visible Light 15h 41m
Length of Day
14h 38m
First Quarter, 56% of the Moon is Illuminated
Jul 16
First Quarter
Jul 22
Full
Jul 29
Last Quarter
Aug 6
New
Aug 14
First Quarter

Hourly Weather History & Observations

Time (EDT) Temp. Heat Index Dew Point Humidity Pressure Visibility Wind Dir Wind Speed Gust Speed Precip Events Conditions
12:53 AM 72.0 °F - 70.0 °F 93% 30.30 in 10.0 mi Calm Calm - N/A   Clear
1:53 AM 71.1 °F - 69.1 °F 93% 30.31 in 10.0 mi Calm Calm - N/A   Clear
2:53 AM 71.1 °F - 69.1 °F 93% 30.31 in 9.0 mi Calm Calm - N/A   Clear
3:53 AM 70.0 °F - 68.0 °F 93% 30.31 in 9.0 mi Calm Calm - N/A   Clear
4:36 AM 69.8 °F - 68.0 °F 94% 30.32 in 5.0 mi Calm Calm - N/A   Scattered Clouds
4:40 AM 69.8 °F - 68.0 °F 94% 30.33 in 2.5 mi Calm Calm - N/A   Mostly Cloudy
4:47 AM 69.8 °F - 68.0 °F 94% 30.33 in 3.0 mi Calm Calm - N/A   Scattered Clouds
4:53 AM 69.1 °F - 66.9 °F 93% 30.30 in 8.0 mi Calm Calm - N/A   Scattered Clouds
5:53 AM 69.1 °F - 66.9 °F 93% 30.32 in 9.0 mi Calm Calm - N/A   Scattered Clouds
6:02 AM 68.0 °F - 66.2 °F 94% 30.35 in 7.0 mi Calm Calm - N/A   Mostly Cloudy
6:11 AM 68.0 °F - 66.2 °F 94% 30.35 in 5.0 mi Calm Calm - N/A   Partly Cloudy
6:37 AM 69.8 °F - 66.2 °F 88% 30.36 in 6.0 mi Calm Calm - N/A   Mostly Cloudy
6:49 AM 68.0 °F - 66.2 °F 94% 30.36 in 6.0 mi Calm Calm - N/A Fog Shallow Fog
6:53 AM 68.0 °F - 66.9 °F 96% 30.34 in 6.0 mi Calm Calm - N/A Fog Shallow Fog
7:02 AM 69.8 °F - 66.2 °F 88% 30.36 in 1.0 mi Calm Calm - N/A   Mist
7:39 AM 71.6 °F - 69.8 °F 94% 30.36 in 6.0 mi Calm Calm - N/A   Partly Cloudy
7:53 AM 72.0 °F - 70.0 °F 93% 30.35 in 7.0 mi Calm Calm - N/A Fog Patches of Fog
8:53 AM 78.1 °F - 72.0 °F 81% 30.36 in 10.0 mi Calm Calm - N/A Fog Patches of Fog
9:53 AM 82.0 °F 86.3 °F 71.1 °F 69% 30.36 in 10.0 mi Calm Calm - N/A   Clear
10:53 AM 86.0 °F 92.2 °F 72.0 °F 63% 30.35 in 10.0 mi Variable 4.6 mph - N/A   Clear
11:53 AM 89.1 °F 95.0 °F 71.1 °F 55% 30.34 in 10.0 mi Calm Calm - N/A   Clear
12:53 PM 89.1 °F 95.0 °F 71.1 °F 55% 30.33 in 10.0 mi Variable 3.5 mph - N/A   Mostly Cloudy
1:53 PM 90.0 °F 94.5 °F 69.1 °F 50% 30.31 in 10.0 mi Calm Calm - N/A   Scattered Clouds
2:53 PM 90.0 °F 94.5 °F 69.1 °F 50% 30.30 in 9.0 mi SSW 4.6 mph - N/A   Clear
3:53 PM 91.0 °F 95.6 °F 69.1 °F 48% 30.28 in 8.0 mi NW 5.8 mph - N/A   Clear
4:53 PM 91.9 °F 97.4 °F 70.0 °F 48% 30.27 in 9.0 mi NW 6.9 mph - N/A   Clear
5:53 PM 90.0 °F 96.4 °F 71.1 °F 54% 30.27 in 9.0 mi Calm Calm - N/A   Clear
6:53 PM 86.0 °F 93.8 °F 73.9 °F 67% 30.27 in 9.0 mi Calm Calm - N/A   Clear
7:04 PM 87.8 °F 95.6 °F 73.4 °F 62% 30.29 in 9.0 mi Calm Calm - N/A Thunderstorm Thunderstorm
7:35 PM 86.0 °F 95.1 °F 75.2 °F 70% 30.29 in 7.0 mi Calm Calm - N/A   Scattered Clouds
7:53 PM 84.0 °F 90.2 °F 73.0 °F 69% 30.27 in 7.0 mi ENE 3.5 mph - 0.00 in   Scattered Clouds
8:53 PM 82.0 °F 87.9 °F 73.9 °F 76% 30.29 in 5.0 mi ENE 4.6 mph - N/A   Haze
9:39 PM 80.6 °F 85.4 °F 73.4 °F 79% 30.32 in 6.0 mi Calm Calm - N/A Thunderstorm Haze
9:53 PM 80.1 °F 84.5 °F 73.9 °F 81% 30.29 in 6.0 mi Calm Calm - N/A Thunderstorm Haze
10:12 PM 78.8 °F - 73.4 °F 83% 30.32 in 5.0 mi West 3.5 mph - N/A   Haze
10:53 PM 79.0 °F - 73.9 °F 84% 30.30 in 6.0 mi Calm Calm - N/A   Haze
11:53 PM 77.0 °F - 73.9 °F 90% 30.30 in 4.0 mi Calm Calm - N/A   Clear